Location: Unspecified
(0.0000°N, 0.0000°E)
Time: 03:40:55
(UTC+00:00)

A-11 Canister half - Pass Details

Date: 16 April 2026
Orbit: 1523 x 1685 km, 47.3° (Epoch: 13 May)

Event Time Altitude Azimuth Distance (km) Brightness Sun altitude
Rises 08:56:10 0° 331° (NNW) 4,855 11.5 43.2°
Reaches altitude 10° 08:59:27 10° 336° (NNW) 3,848 11.1 44.0°
Maximum altitude 09:08:54 53° 50° (NE) 1,891 11.4 46.3°
Drops below altitude 10° 09:18:01 10° 124° (SE) 3,735 11.6 48.5°
Sets 09:21:08 0° 129° (SE) 4,703 11.9 49.2°
